Change the Weather History Date:

Thursday, April 18, 2013

  Actual Average (KBTR) Record (KBTR)
Temperature  
Mean Temperature 72 °F 69 °F  
Max Temperature 84 °F 80 °F 93 °F (2006)
Min Temperature 60 °F 57 °F 38 °F (1997)
Degree Days  
Heating Degree Days 0 1  
Month to date heating degree days 42  
Since 1 July heating degree days 1544  
Cooling Degree Days 8 5  
Month to date cooling degree days 70  
Year to date cooling degree days 159  
Growing Degree Days 22 (Base 50)    
Moisture  
Dew Point 70 °F    
Average Humidity 79    
Maximum Humidity 96    
Minimum Humidity 66    
Precipitation  
Precipitation 0.12 in 0.15 in 2.40 in (1901)
Month to date precipitation 2.77  
Year to date precipitation 17.94  
Snow  
Snow 0.00 in - - ()
Month to date snowfall  
Since 1 July snowfall  
Snow Depth -    
Sea Level Pressure  
Sea Level Pressure 29.84 in    
Wind  
Wind Speed 11 mph (SSE)    
Max Wind Speed 18 mph    
Max Gust Speed 30 mph    
Visibility 10 miles    
Events Rain , Thunderstorm    
T = Trace of Precipitation, MM = Missing Value Source: NWS Daily Summary

Daily Weather History Graph

Daily Weather History Graph

Search for Another Location

Airport or City:

Trip Planner

Search our weather history database for the weather conditions in past years. The results will help you decide how hot, cold, wet, or windy it might be!

Date:

Astronomy

Apr. 18, 2013 Rise Set
Actual Time 6:33 AM CDT 7:33 PM CDT
Civil Twilight 6:08 AM CDT 7:58 PM CDT
Nautical Twilight 5:39 AM CDT 8:27 PM CDT
Astronomical Twilight 5:09 AM CDT 8:57 PM CDT
Moon 12:49 PM CDT (4/18) 1:42 AM CDT (4/18)
Length of Visible Light 13h 49m
Length of Day
13h 00m
First Quarter, 52% of the Moon is Illuminated
Apr 18
First Quarter
Apr 25
Full
May 2
Last Quarter
May 9
New
May 17
First Quarter

Hourly Weather History & Observations

Time (CDT) Temp. Heat Index Dew Point Humidity Pressure Visibility Wind Dir Wind Speed Gust Speed Precip Events Conditions
12:15 AM 75.2 °F - 70.7 °F 86% 29.92 in 10.0 mi ESE 9.2 mph 17.3 mph N/A   Overcast
12:35 AM 75.2 °F - 70.7 °F 86% 29.92 in 10.0 mi ESE 11.5 mph 16.1 mph N/A   Overcast
12:55 AM 75.2 °F - 70.7 °F 86% 29.91 in 10.0 mi SE 11.5 mph 20.7 mph N/A   Overcast
1:15 AM 75.4 °F - 69.6 °F 82% 29.91 in 10.0 mi SE 11.5 mph 18.4 mph N/A   Overcast
1:35 AM 75.2 °F - 69.1 °F 81% 29.91 in 10.0 mi ESE 11.5 mph 18.4 mph N/A   Overcast
1:55 AM 75.2 °F - 69.1 °F 81% 29.90 in 10.0 mi ESE 10.4 mph 16.1 mph N/A   Overcast
2:15 AM 74.8 °F - 69.4 °F 83% 29.90 in 10.0 mi SE 9.2 mph - N/A   Overcast
2:35 AM 74.7 °F - 69.8 °F 85% 29.89 in 10.0 mi SE 9.2 mph - N/A   Overcast
2:55 AM 74.5 °F - 69.4 °F 84% 29.87 in 10.0 mi SE 9.2 mph - N/A   Overcast
3:15 AM 74.3 °F - 69.3 °F 84% 29.87 in 10.0 mi SE 6.9 mph - N/A   Overcast
3:35 AM 74.5 °F - 69.3 °F 84% 29.86 in 10.0 mi SE 9.2 mph 16.1 mph N/A   Overcast
3:55 AM 74.3 °F - 69.3 °F 84% 29.87 in 10.0 mi SE 6.9 mph - N/A   Overcast
4:35 AM 74.3 °F - 69.1 °F 84% 29.87 in 10.0 mi SE 11.5 mph - N/A   Overcast
4:55 AM 74.3 °F - 69.1 °F 84% 29.85 in 10.0 mi SE 5.8 mph - N/A   Overcast
5:15 AM 74.3 °F - 69.1 °F 84% 29.85 in 10.0 mi ESE 8.1 mph - N/A   Overcast
5:35 AM 74.3 °F - 68.9 °F 83% 29.84 in 10.0 mi ESE 9.2 mph - N/A   Overcast
5:55 AM 74.3 °F - 69.1 °F 84% 29.84 in 10.0 mi SE 9.2 mph - N/A   Overcast
6:15 AM 74.1 °F - 69.4 °F 85% 29.84 in 10.0 mi SE 8.1 mph - N/A   Overcast
6:35 AM 74.3 °F - 69.4 °F 85% 29.85 in 10.0 mi SE 4.6 mph - N/A   Overcast
6:55 AM 74.3 °F - 69.4 °F 85% 29.84 in 10.0 mi SE 9.2 mph - N/A   Overcast
7:15 AM 74.3 °F - 69.6 °F 85% 29.84 in 10.0 mi ESE 9.2 mph - N/A   Overcast
7:35 AM 74.7 °F - 69.8 °F 85% 29.84 in 10.0 mi ESE 9.2 mph 17.3 mph N/A   Overcast
7:55 AM 74.8 °F - 70.0 °F 85% 29.85 in 10.0 mi SE 9.2 mph - N/A   Overcast
8:15 AM 75.4 °F - 69.8 °F 83% 29.85 in 10.0 mi SSE 10.4 mph 21.9 mph N/A   Overcast
8:35 AM 76.1 °F - 70.0 °F 81% 29.86 in 10.0 mi SE 12.7 mph 21.9 mph N/A   Overcast
8:55 AM 76.1 °F - 70.0 °F 81% 29.86 in 10.0 mi SSE 13.8 mph 19.6 mph N/A   Overcast
9:15 AM 76.6 °F - 70.2 °F 80% 29.86 in 10.0 mi SSE 10.4 mph 19.6 mph N/A   Overcast
9:35 AM 76.5 °F - 70.2 °F 81% 29.86 in 10.0 mi SSE 13.8 mph 18.4 mph N/A   Overcast
9:55 AM 77.9 °F - 70.5 °F 78% 29.87 in 10.0 mi SSE 12.7 mph 17.3 mph N/A   Overcast
10:15 AM 78.3 °F - 70.5 °F 77% 29.87 in 10.0 mi SSE 11.5 mph 17.3 mph N/A   Overcast
10:35 AM 78.8 °F - 70.5 °F 76% 29.87 in 10.0 mi SSE 12.7 mph 20.7 mph N/A   Overcast
10:55 AM 78.8 °F - 70.5 °F 76% 29.87 in 10.0 mi SSE 12.7 mph 18.4 mph N/A   Overcast
11:15 AM 79.5 °F - 70.9 °F 75% 29.87 in 10.0 mi SSE 13.8 mph 18.4 mph N/A   Overcast
11:35 AM 79.7 °F - 71.2 °F 75% 29.86 in 10.0 mi SSE 10.4 mph 18.4 mph N/A   Overcast
11:55 AM 79.7 °F - 71.1 °F 75% 29.85 in 10.0 mi SSE 12.7 mph 18.4 mph N/A   Overcast
12:15 PM 81.0 °F 85.2 °F 71.8 °F 74% 29.85 in 10.0 mi SSE 12.7 mph 18.4 mph N/A   Overcast
12:35 PM 81.5 °F 85.9 °F 71.6 °F 72% 29.84 in 10.0 mi SSE 13.8 mph 20.7 mph N/A   Overcast
12:55 PM 83.1 °F 88.1 °F 71.8 °F 68% 29.83 in 10.0 mi South 16.1 mph 23.0 mph N/A   Overcast
1:15 PM 83.3 °F 88.4 °F 71.8 °F 68% 29.82 in 10.0 mi SSE 13.8 mph 25.3 mph N/A   Overcast
1:35 PM 82.9 °F 87.7 °F 71.6 °F 68% 29.82 in 10.0 mi SSE 15.0 mph 24.2 mph N/A   Overcast
1:55 PM 84.0 °F 89.3 °F 71.6 °F 66% 29.82 in 10.0 mi SSE 18.4 mph 26.5 mph N/A   Overcast
2:15 PM 82.6 °F 86.6 °F 70.3 °F 66% 29.81 in 10.0 mi SSE 17.3 mph 26.5 mph N/A   Overcast
2:35 PM 82.9 °F 87.2 °F 70.7 °F 66% 29.81 in 10.0 mi South 12.7 mph - N/A   Overcast
2:55 PM 82.4 °F 86.3 °F 70.0 °F 66% 29.81 in 10.0 mi South 16.1 mph 26.5 mph N/A   Mostly Cloudy
3:35 PM 82.4 °F 86.3 °F 70.2 °F 66% 29.80 in 10.0 mi South 15.0 mph - N/A   Overcast
3:55 PM 82.6 °F 86.8 °F 70.5 °F 67% 29.80 in 10.0 mi South 12.7 mph - N/A   Overcast
4:15 PM 82.0 °F 86.1 °F 70.7 °F 68% 29.80 in 10.0 mi South 15.0 mph - N/A   Overcast
4:35 PM 81.1 °F 84.9 °F 70.3 °F 70% 29.80 in 10.0 mi South 17.3 mph 24.2 mph N/A   Overcast
4:55 PM 80.8 °F 84.4 °F 70.5 °F 71% 29.80 in 10.0 mi South 15.0 mph 20.7 mph N/A   Overcast
5:15 PM 81.1 °F 84.9 °F 70.7 °F 70% 29.79 in 10.0 mi SSE 12.7 mph 25.3 mph N/A   Mostly Cloudy
5:35 PM 80.1 °F 83.3 °F 70.2 °F 72% 29.79 in 10.0 mi South 12.7 mph - N/A   Mostly Cloudy
5:55 PM 80.6 °F 84.2 °F 70.7 °F 72% 29.78 in 10.0 mi SSE 15.0 mph - N/A   Overcast
6:15 PM 79.7 °F - 70.7 °F 74% 29.78 in 10.0 mi South 11.5 mph 21.9 mph N/A   Overcast
6:35 PM 79.0 °F - 70.7 °F 76% 29.78 in 10.0 mi SSE 13.8 mph 23.0 mph N/A   Overcast
6:55 PM 79.0 °F - 70.7 °F 76% 29.78 in 10.0 mi South 16.1 mph - N/A   Overcast
7:15 PM 78.3 °F - 70.7 °F 77% 29.79 in 10.0 mi South 11.5 mph 19.6 mph N/A   Overcast
7:35 PM 78.1 °F - 70.9 °F 78% 29.80 in 10.0 mi South 12.7 mph - N/A   Overcast
7:55 PM 77.9 °F - 70.9 °F 79% 29.80 in 10.0 mi South 13.8 mph 20.7 mph N/A   Overcast
8:15 PM 77.5 °F - 71.1 °F 80% 29.81 in 10.0 mi South 12.7 mph 17.3 mph N/A   Overcast
8:35 PM 77.4 °F - 71.2 °F 81% 29.81 in 10.0 mi SSE 15.0 mph 19.6 mph N/A   Overcast
9:55 PM 77.0 °F - 71.6 °F 83% 29.83 in 10.0 mi South 9.2 mph - N/A   Overcast
10:35 PM 76.6 °F - 72.0 °F 85% 29.83 in 10.0 mi South 9.2 mph - N/A   Overcast
10:55 PM 76.6 °F - 71.8 °F 85% 29.82 in 10.0 mi South 9.2 mph - N/A   Overcast
11:15 PM 65.3 °F - 60.4 °F 84% 29.85 in 10.0 mi WNW 18.4 mph 29.9 mph N/A Rain , Thunderstorm Light Thunderstorms and Rain
11:35 PM 61.0 °F - 59.7 °F 96% 29.86 in 7.0 mi WNW 11.5 mph 20.7 mph 0.05 in Rain , Thunderstorm Thunderstorms and Rain
11:55 PM 60.3 °F - 59.2 °F 96% 29.89 in 5.0 mi NW 12.7 mph 23.0 mph 0.12 in Rain , Thunderstorm Rain